Location: Fontenoy
(49.4072°N, 3.2008°E)
Time: 12:03:23
(UTC+00:00)

Cosmos 2219 Rocket - Pass Details

Date: 15 May 2026
Orbit: 826 x 846 km, 71.0° (Epoch: 5 June)

Event Time Altitude Azimuth Distance (km) Brightness Sun altitude
Rises 20:13:24 0° 334° (NNW) 3,403 6.8 -7.3°
Reaches altitude 10° 20:16:13 10° 346° (NNW) 2,469 5.6 -7.6°
Maximum altitude 20:21:03 28° 45° (NE) 1,542 3.6 -8.2°
Drops below altitude 10° 20:25:52 10° 103° (ESE) 2,467 4.1 -8.8°
Enters shadow 20:26:30 - 107° (ESE) 2,668 4.3 -8.9°
